Lambertville, OH

10:46 PM EDT on March 27, 2017 (GMT -0400)
Lambertville

Weather History for KDUH - May, 2014

Change the Weather History Date:

Monday, May 5, 2014

  Actual Average (KTOL) Record (KTOL)
Temperature  
Mean Temperature 47 °F -  
Max Temperature 53 °F 68 °F 92 °F (1952)
Min Temperature 41 °F 43 °F 29 °F (1974)
Degree Days  
Heating Degree Days 18    
Moisture  
Dew Point 36 °F    
Average Humidity 66    
Maximum Humidity 81    
Minimum Humidity 47    
Precipitation  
Precipitation 0.00 in - - ()
Sea Level Pressure  
Sea Level Pressure 30.03 in    
Wind  
Wind Speed 2 mph (East)    
Max Wind Speed 12 mph    
Max Gust Speed 18 mph    
Visibility 10 miles    
Events      
Averages and records for this station are not official NWS values.
T = Trace of Precipitation, MM = Missing Value Source: NWS Daily Summary

Daily Weather History Graph

Daily Weather History Graph

Search for Another Location

Airport or City:

Trip Planner

Search our weather history database for the weather conditions in past years. The results will help you decide how hot, cold, wet, or windy it might be!

Date:

Astronomy

May. 05, 2014 Rise Set
Actual Time 6:26 AM EDT 8:37 PM EDT
Civil Twilight 5:55 AM EDT 9:07 PM EDT
Nautical Twilight 5:17 AM EDT 9:45 PM EDT
Astronomical Twilight 4:36 AM EDT 10:27 PM EDT
Moon 11:45 AM EDT (5/5) 1:20 AM EDT (5/5)
Length of Visible Light 15h 12m
Length of Day
14h 11m
Waxing Crescent, 36% of the Moon is Illuminated
May 5
Waxing Crescent
May 6
First Quarter
May 14
Full
May 21
Last Quarter
May 28
New

Hourly Weather History & Observations

Time (EDT) Temp. Windchill Dew Point Humidity Pressure Visibility Wind Dir Wind Speed Gust Speed Precip Events Conditions
12:15 AM 41.0 °F - 33.8 °F 76% 30.09 in 10.0 mi Calm Calm - N/A   Clear
12:35 AM 41.0 °F - 33.8 °F 76% 30.08 in 10.0 mi Calm Calm - N/A   Clear
12:55 AM 41.0 °F - 33.8 °F 76% 30.08 in 10.0 mi Calm Calm - N/A   Clear
1:15 AM 41.0 °F - 32.0 °F 70% 30.08 in 10.0 mi Calm Calm - N/A   Clear
1:35 AM 42.8 °F - 33.8 °F 70% 30.09 in 10.0 mi Calm Calm - N/A   Clear
1:55 AM 42.8 °F - 35.6 °F 76% 30.08 in 10.0 mi Calm Calm - N/A   Clear
2:15 AM 42.8 °F - 33.8 °F 70% 30.08 in 10.0 mi Calm Calm - N/A   Clear
2:35 AM 42.8 °F - 35.6 °F 76% 30.07 in 10.0 mi Calm Calm - N/A   Clear
2:55 AM 42.8 °F - 33.8 °F 70% 30.07 in 10.0 mi Calm Calm - N/A   Clear
3:15 AM 42.8 °F - 35.6 °F 76% 30.07 in 10.0 mi Calm Calm - N/A   Clear
3:35 AM 42.8 °F - 35.6 °F 76% 30.06 in 10.0 mi Calm Calm - N/A   Clear
3:55 AM 42.8 °F - 35.6 °F 76% 30.04 in 10.0 mi Calm Calm - N/A   Clear
4:15 AM 42.8 °F - 35.6 °F 76% 30.04 in 10.0 mi Calm Calm - N/A   Clear
4:35 AM 42.8 °F - 35.6 °F 76% 30.05 in 10.0 mi Calm Calm - N/A   Clear
4:55 AM 42.8 °F - 35.6 °F 76% 30.05 in 10.0 mi Calm Calm - N/A   Clear
5:15 AM 42.8 °F - 35.6 °F 76% 30.05 in 10.0 mi Calm Calm - N/A   Clear
5:35 AM 41.0 °F - 35.6 °F 81% 30.07 in 10.0 mi Calm Calm - N/A   Clear
5:55 AM 42.8 °F - 35.6 °F 76% 30.07 in 10.0 mi Calm Calm - N/A   Clear
6:15 AM 42.8 °F - 37.4 °F 81% 30.07 in 10.0 mi Calm Calm - N/A   Clear
6:35 AM 42.8 °F - 37.4 °F 81% 30.08 in 10.0 mi Calm Calm - N/A   Clear
6:55 AM 42.8 °F - 35.6 °F 76% 30.08 in 10.0 mi Calm Calm - N/A   Clear
7:15 AM 42.8 °F - 37.4 °F 81% 30.08 in 10.0 mi Calm Calm - N/A   Clear
7:35 AM 42.8 °F - 37.4 °F 81% 30.07 in 10.0 mi Calm Calm - N/A   Scattered Clouds
7:55 AM 44.6 °F - 37.4 °F 76% 30.07 in 10.0 mi Calm Calm - N/A   Mostly Cloudy
8:15 AM 44.6 °F 43.1 °F 37.4 °F 76% 30.05 in 10.0 mi East 3.5 mph - N/A   Overcast
8:35 AM 46.4 °F 45.2 °F 37.4 °F 71% 30.04 in 10.0 mi East 3.5 mph - N/A   Overcast
8:55 AM 48.2 °F - 35.6 °F 62% 30.05 in 10.0 mi SE 6.9 mph - N/A   Overcast
9:15 AM 48.2 °F - 35.6 °F 62% 30.06 in 10.0 mi SE 8.1 mph - N/A   Mostly Cloudy
9:35 AM 50.0 °F - 35.6 °F 58% 30.07 in 10.0 mi ESE 6.9 mph - N/A   Light Drizzle
9:55 AM 50.0 °F - 35.6 °F 58% 30.06 in 10.0 mi ESE 8.1 mph - N/A   Overcast
10:15 AM 48.2 °F - 37.4 °F 66% 30.07 in 10.0 mi ESE 4.6 mph - N/A   Overcast
10:35 AM 50.0 °F - 37.4 °F 62% 30.08 in 10.0 mi ESE 4.6 mph - N/A   Overcast
10:55 AM 50.0 °F - 39.2 °F 66% 30.08 in 10.0 mi East 3.5 mph - N/A   Overcast
11:15 AM 50.0 °F - 41.0 °F 71% 30.08 in 10.0 mi East 4.6 mph - N/A   Overcast
11:35 AM 50.0 °F - 41.0 °F 71% 30.06 in 10.0 mi East 6.9 mph - N/A   Overcast
11:55 AM 51.8 °F - 41.0 °F 67% 30.06 in 10.0 mi ESE 6.9 mph - N/A   Overcast
12:15 PM 51.8 °F - 41.0 °F 67% 30.05 in 10.0 mi ENE 6.9 mph - N/A   Overcast
12:35 PM 51.8 °F - 39.2 °F 62% 30.07 in 10.0 mi NE 5.8 mph - N/A   Overcast
12:55 PM 51.8 °F - 37.4 °F 58% 30.07 in 10.0 mi ENE 6.9 mph - N/A   Overcast
1:15 PM 50.0 °F - 37.4 °F 62% 30.06 in 10.0 mi East 8.1 mph - N/A   Overcast
1:35 PM 50.0 °F - 35.6 °F 58% 30.06 in 10.0 mi ENE 6.9 mph - N/A   Overcast
2:15 PM 50.0 °F - 37.4 °F 62% 30.04 in 10.0 mi East 8.1 mph - N/A   Overcast
2:35 PM 51.8 °F - 37.4 °F 58% 30.03 in 10.0 mi East 9.2 mph - N/A   Overcast
2:55 PM 51.8 °F - 35.6 °F 54% 30.02 in 10.0 mi ENE 9.2 mph - N/A   Overcast
3:15 PM 51.8 °F - 35.6 °F 54% 30.01 in 10.0 mi East 11.5 mph - N/A   Overcast
3:35 PM 53.6 °F - 33.8 °F 47% 30.00 in 10.0 mi ESE 11.5 mph - N/A   Scattered Clouds
3:55 PM 53.6 °F - 33.8 °F 47% 30.00 in 10.0 mi ENE 11.5 mph 16.1 mph N/A   Scattered Clouds
4:15 PM 53.6 °F - 35.6 °F 51% 29.99 in 10.0 mi ENE 11.5 mph 18.4 mph N/A   Mostly Cloudy
4:35 PM 51.8 °F - 37.4 °F 58% 29.99 in 10.0 mi East 10.4 mph 17.3 mph N/A   Mostly Cloudy
4:55 PM 51.8 °F - 32.0 °F 47% 29.98 in 10.0 mi ENE 10.4 mph - N/A   Mostly Cloudy
5:15 PM 51.8 °F - 32.0 °F 47% 29.98 in 10.0 mi ENE 8.1 mph - N/A   Overcast
5:35 PM 51.8 °F - 32.0 °F 47% 29.98 in 10.0 mi ENE 6.9 mph - N/A   Overcast
5:55 PM 51.8 °F - 32.0 °F 47% 29.98 in 10.0 mi East 8.1 mph - N/A   Overcast
6:15 PM 51.8 °F - 33.8 °F 50% 29.98 in 10.0 mi East 5.8 mph - N/A   Mostly Cloudy
6:35 PM 51.8 °F - 35.6 °F 54% 29.97 in 10.0 mi East 5.8 mph - N/A   Scattered Clouds
6:55 PM 51.8 °F - 35.6 °F 54% 29.97 in 10.0 mi ENE 6.9 mph - N/A   Mostly Cloudy
7:15 PM 50.0 °F - 37.4 °F 62% 29.97 in 10.0 mi ENE 6.9 mph - N/A   Mostly Cloudy
7:35 PM 50.0 °F - 35.6 °F 58% 29.98 in 10.0 mi East 4.6 mph - N/A   Mostly Cloudy
7:55 PM 50.0 °F - 35.6 °F 58% 29.98 in 10.0 mi ENE 4.6 mph - N/A   Overcast
8:15 PM 50.0 °F - 35.6 °F 58% 29.98 in 10.0 mi NE 4.6 mph - N/A   Mostly Cloudy
8:35 PM 50.0 °F - 33.8 °F 54% 29.98 in 10.0 mi ENE 4.6 mph - N/A   Scattered Clouds
8:55 PM 48.2 °F - 33.8 °F 58% 29.98 in 10.0 mi Calm Calm - N/A   Clear
9:15 PM 46.4 °F - 33.8 °F 62% 29.98 in 10.0 mi Calm Calm - N/A   Clear
9:35 PM 44.6 °F - 33.8 °F 66% 29.98 in 10.0 mi Calm Calm - N/A   Clear
9:55 PM 44.6 °F - 35.6 °F 71% 29.98 in 10.0 mi Calm Calm - N/A   Clear
10:15 PM 42.8 °F - 35.6 °F 76% 29.98 in 10.0 mi Calm Calm - N/A   Clear
10:35 PM 42.8 °F - 35.6 °F 76% 29.99 in 10.0 mi Calm Calm - N/A   Clear
10:55 PM 41.0 °F - 35.6 °F 81% 29.99 in 10.0 mi Calm Calm - N/A   Clear
11:15 PM 41.0 °F - 33.8 °F 76% 29.99 in 10.0 mi Calm Calm - N/A   Clear
11:35 PM 41.0 °F - 35.6 °F 81% 29.98 in 10.0 mi Calm Calm - N/A   Clear
11:55 PM 41.0 °F - 35.6 °F 81% 29.98 in 10.0 mi Calm Calm - N/A   Clear